Location: Unspecified
(29.9680°N, 0.0000°E)
Time: 13:57:44
(UTC+00:00)

Vanguard 1 - All Passes

Search period start: 26 June 2019 00:00
Search period end: 06 July 2019 00:00
Orbit: 654 x 3830 km, 34.2° (Epoch: 24 June)

Date Brightness Start Highest point End Pass type
(mag) Time Alt. Az. Time Alt. Az. Time Alt. Az.
26 Jun - 02:23:36 10° WSW 02:45:01 83° NNW 02:56:56 10° ENE visible
26 Jun - 04:53:42 10° W 05:09:19 73° N 05:17:23 10° E daylight
26 Jun - 07:21:11 10° WNW 07:31:02 59° SSW 07:36:38 10° SE daylight
26 Jun - 21:55:11 10° SSW 22:14:51 36° SE 22:32:17 10° E visible
27 Jun - 00:17:22 10° SW 00:40:51 73° SSE 00:56:42 10° ENE visible
27 Jun - 02:45:50 10° W 03:06:40 78° N 03:18:05 10° ENE visible
27 Jun - 05:15:48 10° WNW 05:30:46 79° NNE 05:38:28 10° E daylight
27 Jun - 07:42:59 10° WNW 07:51:47 42° SW 07:57:07 10° SSE daylight
27 Jun - 20:01:45 10° SSE 20:11:08 14° SE 20:20:44 10° ESE visible
27 Jun - 22:15:02 10° SSW 22:36:12 45° SE 22:54:28 10° ENE visible
28 Jun - 00:38:49 10° WSW 01:02:29 82° SSE 01:17:57 10° ENE visible
28 Jun - 03:08:09 10° W 03:28:21 75° N 03:39:14 10° E visible
28 Jun - 05:37:47 10° WNW 05:52:06 89° NNE 05:59:29 10° ESE daylight
28 Jun - 08:05:00 10° W 08:12:22 28° SW 08:17:13 10° SSE daylight
28 Jun - 20:18:09 10° S 20:32:20 21° SE 20:46:55 10° E visible
28 Jun - 22:35:20 10° SW 22:57:36 55° SE 23:16:16 10° ENE visible
29 Jun - 01:00:33 10° WSW 01:24:10 90° NNW 01:39:11 10° ENE visible
29 Jun - 03:30:30 10° W 03:50:02 74° N 04:00:25 10° E visible
29 Jun - 05:59:41 10° WNW 06:13:16 77° SSW 06:20:22 10° ESE daylight
29 Jun - 08:27:34 10° W 08:32:48 18° SW 08:36:43 10° S daylight
29 Jun - 20:36:32 10° S 20:53:28 29° SE 21:10:49 10° E visible
29 Jun - 22:56:03 10° SW 23:19:04 65° SSE 23:37:51 10° ENE visible
30 Jun - 01:22:33 10° WSW 01:45:57 83° NNW 02:00:26 10° ENE visible
30 Jun - 03:52:48 10° W 04:11:41 77° N 04:21:36 10° E visible
30 Jun - 06:21:34 10° WNW 06:34:16 61° SSW 06:41:04 10° SE daylight
30 Jun - 20:55:49 10° SSW 21:14:34 37° SE 21:33:41 10° E visible
30 Jun - 23:17:06 10° SW 23:40:40 75° SSE 23:59:17 10° ENE visible
01 Jul - 01:44:43 10° W 02:07:47 79° N 02:21:41 10° ENE visible
01 Jul - 04:15:00 10° WNW 04:33:15 82° NNE 04:42:44 10° ESE visible
01 Jul - 06:43:31 10° WNW 06:55:03 46° SW 07:01:33 10° SSE daylight
01 Jul - 19:03:14 10° SSE 19:11:38 14° SE 19:20:41 10° ESE daylight
01 Jul - 21:15:41 10° SSW 21:35:44 47° SE 21:55:58 10° ENE visible
01 Jul - 23:38:27 10° WSW 00:02:22 84° SSE 00:20:40 10° ENE visible
02 Jul - 02:07:01 10° W 02:29:39 76° N 02:42:57 10° E visible
02 Jul - 04:37:06 10° WNW 04:54:42 89° SSW 05:03:46 10° ESE visible
02 Jul - 07:05:40 10° WNW 07:15:36 32° SW 07:21:40 10° SSE daylight
02 Jul - 19:19:36 10° S 19:32:32 21° SE 19:47:08 10° E visible
02 Jul - 21:35:59 10° SW 21:57:00 57° SE 22:17:53 10° ENE visible
03 Jul - 00:00:05 10° WSW 00:24:11 89° NNW 00:42:02 10° ENE visible
03 Jul - 02:29:20 10° W 02:51:31 76° N 03:04:15 10° E visible
03 Jul - 04:59:07 10° WNW 05:15:57 77° SSW 05:24:40 10° ESE daylight
03 Jul - 07:28:17 10° W 07:36:00 22° SW 07:41:17 10° S daylight
03 Jul - 19:38:02 10° S 19:53:24 29° SE 20:11:12 10° E visible
03 Jul - 21:56:38 10° SW 22:18:25 66° SSE 22:39:35 10° ENE visible
04 Jul - 00:21:59 10° WSW 00:46:07 83° NNW 01:03:24 10° ENE visible
04 Jul - 02:51:38 10° W 03:13:20 79° N 03:25:30 10° E visible
04 Jul - 05:21:08 10° WNW 05:37:00 63° SSW 05:45:23 10° SE daylight
04 Jul - 07:52:04 10° W 07:56:17 13° SW 07:59:43 10° SSW daylight
04 Jul - 19:57:20 10° SSW 20:14:17 38° SE 20:34:12 10° ENE visible
04 Jul - 22:17:37 10° SW 22:39:59 76° SSE 23:01:10 10° ENE visible
05 Jul - 00:44:02 10° W 01:08:08 79° N 01:24:48 10° E visible
05 Jul - 03:13:51 10° WNW 03:35:03 84° NNE 03:46:41 10° ESE visible
05 Jul - 05:43:12 10° WNW 05:57:48 49° SW 06:05:51 10° SSE daylight
05 Jul - 18:05:59 10° SE 18:12:21 12° SE 18:19:25 10° ESE daylight
05 Jul - 20:17:11 10° SSW 20:35:15 47° SE 20:56:37 10° ENE visible
05 Jul - 22:38:54 10° WSW 23:01:43 85° SSE 23:22:41 10° ENE visible
